Current Version              Previous Version:    01  02  03  04  05  06  07  08  09  10  11  12  13  14  15  16  17  18  19  20  21  22  23  24  25  26  27  28  29  30  
   31  32  33  34  35  36  37  38  39  40  41  42  43  44  45  46  47  48  49  50  51  52  53  54  55  56  57  58  59  60  

[Printable]
751
ASUS44 KEWX 301710
RWRTX
SOUTH TEXAS REGIONAL WEATHER ROUNDUP
NATIONAL WEATHER SERVICE AUSTIN/SAN ANTONIO TX
1200 PM CDT TUE SEP 30 2014

NOTE: "FAIR" INDICATED FEW OR NO CLOUDS BELOW 12,000 FEET WITH NO
SIGNIFICANT WEATHER AND/OR OBSTRUCTIONS TO VISIBILITY.

* - THESE STATIONS ARE NOT NWS OR FAA STATIONS...AND ARE NOT SUBJECT
    TO NWS AND FAA QUALITY CONTROL.

TXZ171-172-183>190-301800-
TEXAS HILL COUNTRY AND EDWARDS PLATEAU

CITY           SKY/WX    TMP DP  RH WIND       PRES   REMARKS
JUNCTION       SUNNY     80  61  52 S9        29.91F
*LLANO         SUNNY     84  66  54 CALM      29.93F
BURNET         SUNNY     82  61  48 VRB5      29.94S
*HORSESHOE BAY MOSUNNY   84  62  48 S5        29.91F
*KERRVILLE     MOSUNNY   80  69  67 SE6       29.93F
*FREDERICKSBRG SUNNY     80  64  57 SW6       29.93F
*ROCKSPRINGS   SUNNY     81  64  57 S8        29.97S
*BOERNE STAGE  MOSUNNY   82  63  51 SE3       29.93F
*CASTROVILLE   SUNNY     84  65  52 SE5       29.91F
HONDO          MOSUNNY   85  67  54 SE6       29.91F
*UVALDE        SUNNY     82  70  67 SE6       29.91S
DEL RIO        SUNNY     82  69  64 SE15      29.87F
LAUGHLIN AFB   SUNNY     82  69  65 S13       29.88F
CARRIZO SPRGS  MOSUNNY   84  70  61 S8        29.87F
$$

TXZ173-191>194-202-209-217>225-228-301800-
CENTRAL AND SOUTH CENTRAL TEXAS

CITY           SKY/WX    TMP DP  RH WIND       PRES   REMARKS
GEORGETOWN     MOSUNNY   82  66  57 S7        29.90F
AUSTIN/BERGSTM MOSUNNY   83  68  60 CALM      29.88F
AUSTIN/MABRY   MOSUNNY   83  68  60 CALM      29.90F
*AUSTIN/EXEC   SUNNY     82  68  61 SE3       29.90F
*LAGO VISTA    SUNNY     83  63  51 SE5       29.93S
SAN MARCOS     MOSUNNY   84  66  54 S6        29.90F
NEW BRAUNFELS  MOSUNNY   85  68  56 VRB6      29.88F
RANDOLPH AFB   MOSUNNY   84  67  56 VRB5      29.90F
PT SAN ANTONIO SUNNY     85  68  57 SE5       29.88F
SAN ANTONIO    MOSUNNY   85  66  53 SE7       29.90F
STINSON FIELD  SUNNY     85  68  56 S7        29.87F
*PLEASANTON    MOSUNNY   85  68  56 E5        29.88F
*LA GRANGE     SUNNY     84  73  71 CALM      29.87F HX  90
*GIDDINGS      MOSUNNY   83  69  62 S3        29.92F
*GONZALES      PTSUNNY   84  72  68 CALM      29.87F
$$

TXZ163>164-176>182-195>201-210>213-226-227-235-301800-
SOUTHEAST TEXAS

CITY           SKY/WX    TMP DP  RH WIND       PRES   REMARKS
COLLEGE STN    PTSUNNY   83  72  69 CALM      29.88F
*BRYAN         PTSUNNY  N/A N/A N/A MISG      29.88F
*CALDWELL      PTSUNNY   82  70  65 CALM      29.92S
*CROCKETT      MOSUNNY   88  73  62 E5        29.91F HX  96
*BRENHAM       SUNNY     84  71  65 CALM      29.89F
HUNTSVILLE     MOSUNNY   84  69  60 VRB6      29.89F
CONROE         MOSUNNY   83  70  64 E3        29.89F
HOUSTON BUSH   MOSUNNY   86  73  65 E6        29.88S HX  93
HOUSTON HOBBY  MOSUNNY   86  72  62 E5        29.87S HX  92
*HOUSTON SW AP MOSUNNY   75  64  68 CALM      29.88S
PEARLAND       PTSUNNY   86  73  65 E9        29.88F HX  93
HOUSTON HOOKS  MOSUNNY   85  72  65 E5        29.88F HX  91
ELLINGTON FLD  MOSUNNY   88  77  70 NE8       29.89F HX 100
SUGAR LAND     PTSUNNY   84  72  67 E5        29.87S
*HOUSTON EXEC  PTSUNNY   84  84 100 CALM      29.89F HX 104
*CLEVELAND MUN PTSUNNY   84  75  74 CALM      29.89S HX  92
*WHARTON       PTSUNNY   84  72  66 CALM      29.88F HX  90
*COLUMBUS      NOT AVBL
$$

TXZ214>216-236>238-301800-
THE UPPER TEXAS COAST

CITY           SKY/WX    TMP DP  RH WIND       PRES   REMARKS
*ORANGE        PTSUNNY   84  72  66 E7        29.90F HX  90
PORT ARTHUR    PTSUNNY   86  73  65 E9        29.87F HX  93
GALVESTON      MOSUNNY   83  75  77 E9        29.88S HX  90
ANGLETON       PTSUNNY   85  73  67 SE6       29.87F HX  91
*BAY CITY      PTSUNNY   85  75  71 E3        29.86F HX  93
PALACIOS       PTSUNNY   84  74  71 SE7       29.86F HX  91
$$

TXZ229>234-239>247-301800-
TEXAS COASTAL BEND AND RIO GRANDE PLAINS

CITY           SKY/WX    TMP DP  RH WIND       PRES   REMARKS
VICTORIA       MOSUNNY   84  73  69 SE5       29.88S HX  90
*BEEVILLE      MOSUNNY   84  71  65 E5        29.87S
ROCKPORT       PTSUNNY   83  75  77 E8        29.85F HX  90
*PORT ARANSAS  MOSUNNY   80  75  86 E10       29.84F
*PORT LAVACA   CLOUDY    83  74  74 E6        29.87S
*INGLESIDE     PTSUNNY   84  75  73 E15       29.85S HX  91
CORPUS CHRISTI PTSUNNY   82  75  79 NE8       29.85F
CORPUS NAS     PTSUNNY   82  75  79 E14       29.84S
*ROBSTOWN      PTSUNNY   84  76  76 E7        29.86S HX  92
ALICE          PTSUNNY   84  74  71 E7        29.86S HX  91
KINGSVILLE NAS PTSUNNY   86  77  74 E7        29.85F HX  97
COTULLA        SUNNY     86  67  52 VRB5      29.88F
*FAITH RANCH   SUNNY     82  68  61 S7        29.90S
LAREDO         SUNNY     85  70  60 CALM      29.90F
$$

TXZ248>255-301800-
DEEP SOUTH TEXAS

CITY           SKY/WX    TMP DP  RH WIND       PRES   REMARKS
BROWNSVILLE    PTSUNNY   84  77  79 CALM      29.84F HX  94
PORT ISABEL    MOSUNNY   85  75  72 CALM      29.84F HAZE    HX  93
*SOUTH PADRE   SUNNY     88  75  66 W3        29.84F HX  97
HARLINGEN      LGT RAIN  81  76  84 W9        29.84F
*HEBBRONVILLE    N/A     83  71  68 NE3       29.88F
MCALLEN        CLOUDY    81  75  82 SE6       29.86F
*WESLACO       PTSUNNY   82  73  74 CALM      29.85F
FALFURRIAS     MOSUNNY   83  75  78 E6        29.85F HX  90
EDINBURG       DRIZZLE   81  74  80 CALM      29.85F
*ZAPATA        MOSUNNY   83  70  66 CALM      29.86F
$$

TXZ213>215-236>238-242>244-246-247-251-254-255-301800-
CMAN STATIONS

STATION/POSITION TIME  TEMP    WIND        PRES    WAVE
                       AIR SEA DIR/SP/G            HT/PER
                 (UTC) (F)     (DEG/KT/KT) (MB)    (FT/S)
SABINE PASS      1700   81 79  120/  8/ 12 1012.0
SEA RIM ST PARK  1700   81     110/ 10/ 13 1012.2
NORTH JETTY/GLS  1700   81 80  130/  7/  9   N/A
EAGLE POINT      1700   79 81  110/  7/  9 1011.9
MORGANS POINT    1700   81     130/  7/  9 1011.8
MISSION/ARANSAS  1600           80/  7     1012.0
PORT O`CONNOR    1700           60/  9/ 10   N/A
PORT ARANSAS     1700   78 80   70/ 13/ 14 1010.9
MALAQUITE BEACH  1700   79 81   50/ 13/ 15 1009.9
BAFFIN BAY       1700   80 82   60/  6/  7 1010.6
PORT ISABEL      1700   84 81     CALM     1011.0
$$

GMZ080-GMZ150>470-301800-
OFFSHORE BUOY REPORTS

STATION/POSITION TIME  TEMP    WIND        PRES    WAVE
                       AIR SEA DIR/SP/G            HT/PER
                 (UTC) (F)     (DEG/KT/KT) (MB)    (FT/S)
20 E GALVESTON   1700   80 82   90/  8/ 10 1011.3    1/ 5
90 E PT ARANSAS  1700   82 84  110/  6/  6 1011.2    2/ 6
35 NE PT MANSFLD 1700   82 86  300/  2/  2 1010.1    2/ 5
200 E PT ISABEL  1700   83 84  180/  8/ 10 1011.4    1/ 6
$$